Simultaneous Nadir Overpasses (SNOs) Predictions

Prediction of SNOs between METOP-A and NOAA-19 Satellite Orbit:

Table of predicted SNOs for the next 14.0 days since TLE Epoch: 12/3/2016
Index Date (METOP-A) Time (METOP-A) Lat,Lon (METOP-A) SZA (METOP-A ) Date (NOAA-19) Time (NOAA-19) Lat,Lon (NOAA-19) SZA (NOAA-19 ) Distance(km) Time Diff (sec)
1 12/08/2016 07:15:16 -76.72,-106.24 80.56 12/08/2016 07:14:01 -76.73,-106.55 80.56 7.99 75
2 12/08/2016 08:05:57 76.65, 60.84 99.38 12/08/2016 08:05:02 76.66, 60.96 99.39 3.17 55
3 12/08/2016 08:56:39 -76.66,-131.83 80.62 12/08/2016 08:56:01 -76.65,-131.74 80.62 2.41 38
4 12/08/2016 09:47:19 76.63, 35.43 99.37 12/08/2016 09:47:04 76.67, 35.42 99.40 3.96 15
5 12/08/2016 10:38:01 -76.64,-157.24 80.63 12/08/2016 10:38:03 -76.66,-157.28 80.61 2.43 2
6
